TimePDT,TemperatureF,Dew PointF,Humidity,Sea Level PressureIn,VisibilityMPH,Wind Direction,Wind SpeedMPH,Gust SpeedMPH,PrecipitationIn,Events,Conditions,WindDirDegrees,DateUTC
12:56 AM,52.0,37.0,57,30.04,10.0,Calm,Calm,-,N/A,,Clear,0,2013-08-06 07:56:00
1:56 AM,51.1,36.0,56,30.04,10.0,Calm,Calm,-,N/A,,Clear,0,2013-08-06 08:56:00
2:56 AM,51.1,34.0,52,30.03,10.0,Calm,Calm,-,N/A,,Clear,0,2013-08-06 09:56:00
3:56 AM,48.9,34.0,56,30.04,10.0,ENE,3.5,-,N/A,,Clear,60,2013-08-06 10:56:00
4:56 AM,46.9,33.1,59,30.04,10.0,Calm,Calm,-,N/A,,Clear,0,2013-08-06 11:56:00
7:56 AM,57.9,41.0,53,30.05,10.0,Calm,Calm,-,N/A,,Clear,0,2013-08-06 14:56:00
8:56 AM,68.0,46.0,45,30.05,10.0,Calm,Calm,-,N/A,,Clear,0,2013-08-06 15:56:00
9:56 AM,73.0,39.9,30,30.05,10.0,Calm,Calm,-,N/A,,Clear,0,2013-08-06 16:56:00
10:56 AM,81.0,41.0,24,30.04,10.0,Calm,Calm,-,N/A,,Clear,0,2013-08-06 17:56:00
11:56 AM,84.9,37.9,19,30.04,10.0,Variable,3.5,-,N/A,,Clear,0,2013-08-06 18:56:00
12:56 PM,88.0,37.0,16,30.02,10.0,Calm,Calm,-,N/A,,Clear,0,2013-08-06 19:56:00
1:56 PM,89.1,41.0,19,30.00,10.0,Calm,Calm,-,N/A,,Clear,0,2013-08-06 20:56:00
2:56 PM,89.1,34.0,14,29.99,10.0,Calm,Calm,-,N/A,,Clear,0,2013-08-06 21:56:00
3:56 PM,89.1,30.9,12,29.97,10.0,Calm,Calm,-,N/A,,Clear,0,2013-08-06 22:56:00
4:56 PM,82.9,36.0,19,29.98,10.0,Calm,Calm,-,N/A,,Clear,0,2013-08-06 23:56:00
5:56 PM,82.9,37.0,19,29.98,10.0,Calm,Calm,-,N/A,,Clear,0,2013-08-07 00:56:00
6:56 PM,79.0,36.0,21,29.98,10.0,Calm,Calm,-,N/A,,Clear,0,2013-08-07 01:56:00
7:56 PM,75.9,36.0,23,29.97,10.0,Calm,Calm,-,N/A,,Clear,0,2013-08-07 02:56:00
8:56 PM,73.0,35.1,25,29.99,10.0,Variable,3.5,-,N/A,,Clear,0,2013-08-07 03:56:00
9:56 PM,66.9,36.0,32,30.01,10.0,Calm,Calm,-,N/A,,Clear,0,2013-08-07 04:56:00
10:56 PM,61.0,37.0,41,30.01,10.0,Calm,Calm,-,N/A,,Clear,0,2013-08-07 05:56:00
11:56 PM,64.9,37.0,36,30.01,10.0,Calm,Calm,-,N/A,,Clear,0,2013-08-07 06:56:00